Location: Newark
(47.4333°N, 19.2500°E)
Time: 16:10:53
(UTC+00:00)

ISS - Visible Passes

Search period start: 23 June 2021 00:00
Search period end: 03 July 2021 00:00
Orbit: 417 x 422 km, 51.6° (Epoch: 22 June)

Date Brightness Start Highest point End Pass type
(mag) Time Alt. Az. Time Alt. Az. Time Alt. Az.
28 Jun -1.3 01:28:46 10° SSE 01:30:14 12° SE 01:31:40 10° ESE visible
30 Jun -2.5 01:29:33 15° SSW 01:31:47 29° SE 01:34:44 10° E visible
01 Jul -2.0 00:43:47 18° SSE 00:44:29 19° SE 00:46:58 10° E visible
01 Jul -1.3 23:57:59 12° ESE 23:57:59 12° ESE 23:58:45 10° ESE visible
02 Jul -3.7 01:30:56 16° SW 01:33:32 67° SSE 01:36:53 10° ENE visible
